Find Feng Yun 3B

NORAD ID: 37214 Int'l Des: 2010-059 Owner: NSMC Country: CN operational
LEOCIRCULARRETROGRADESSO

現在のビュー

3D地球を読み込み中...

About Feng Yun 3B

Feng Yun 3B (NORAD 37214) is a satellite launched Nov 4, 2010 by NSMC of CN. It operates in LEO, CIRCULAR, RETROGRADE, SSO orbit with a mass of 2200.00 kg.

次回通過

Passes for default location (London). Set your location on the main map for personalized predictions.

高度履歴

Loading altitude history...

軌道要素

1 37214U 10059A 26195.25067807 -.00000060 00000-0 -77000-5 0 9997
2 37214 98.9613 241.3777 0023150 109.1606 328.0032 14.14847138811256
Epoch: Jul 14, 2026 • Age: 10 hours

現在のステータス

高度 838.7 km
遠地点 / 近地点 N/A
速度 7.45 km/s
衛星直下点 73.03°N, 84.73°W
打ち上げ日 Nov 4, 2010
運用期間 15.6 years
タイプ other

技術仕様

分類 Payload
質量 2200.00 kg
乾燥質量 2130.00 kg
総質量 2200.00 kg
長さ 4.40 m
直径 2.00 m
スパン 10.00 m
形状 Box + 2 Pan
製造者 SISE
バスタイプ FY-3
フェーズステータス In Orbit
所有者/国 NSMC/CN

Most Searched